FW7505 Weather Reports


time (UTC)temp
F
wind
direction
speed
knots
gust
knots
rain 1hr
in
rain 24hr
in
rain mn
in
humidity
%
barometer
mb
20260509033053 55 0 0.9 7.8 0.00 0.08 0.08 92 1012.3
20260509031559 55 0 0.9 5.2 0.00 0.08 0.08 92 1012.7
20260509030057 55 0 0.9 5.2 0.00 0.08 0.08 92 1012.7
20260509024555 55 184 1.7 7.0 0.00 0.08 0.08 92 1012.9
20260509023050 54 204 1.7 5.2 0.00 0.08 0.08 92 1012.9
20260509021547 54 198 2.6 7.0 0.00 0.08 0.08 92 1012.8
20260509020052 54 190 0.9 5.2 0.00 0.08 0.08 92 1012.9
20260509014550 54 189 0.9 5.2 0.00 0.08 0.08 92 1012.8
20260509013055 54 175 1.7 7.8 0.00 0.08 0.08 92 1012.8
20260509011558 54 206 1.7 8.7 0.00 0.08 0.08 92 1012.8
20260509010050 54 164 2.6 9.6 0.00 0.08 0.08 92 1012.7
20260509004604 54 189 1.7 5.2 0.00 0.08 0.08 92 1012.7
20260509003053 54 177 1.7 5.2 0.00 0.08 0.08 91 1013.0
20260509001551 54 175 1.7 5.2 0.00 0.08 0.08 91 1012.9
20260509000049 55 0 0.9 4.3 0.00 0.08 0.08 91 1013.1
20260508234548 55 123 2.6 7.0 0.00 0.08 0.08 90 1013.1
20260508233050 55 0 1.7 4.3 0.00 0.08 0.08 90 1013.1
20260508231545 55 0 0.0 0.9 0.02 0.08 0.08 89 1013.2
20260508230053 55 202 0.9 6.1 0.03 0.08 0.08 89 1013.1
20260508224552 55 0 0.0 2.6 0.03 0.07 0.07 88 1013.0
20260508223055 56 165 0.0 2.6 0.04 0.07 0.07 87 1013.3
20260508221548 56 0 0.9 4.3 0.03 0.06 0.06 86 1013.3
20260508214600 58 0 0.0 1.7 0.03 0.03 0.03 82 1013.5
20260508213050 58 0 0.0 1.7 0.01 0.02 0.02 80 1013.3
20260508211551 59 0 0.0 2.6 0.01 0.02 0.02 77 1013.1
20260508210051 60 0 0.0 4.3 0.00 0.01 0.01 74 1013.2
20260508204551 60 248 0.9 3.5 0.00 0.00 0.00 71 1013.4
20260508203051 61 0 0.0 7.0 0.00 0.00 0.00 67 1013.5
20260508201557 62 194 0.9 7.0 0.00 0.00 0.00 64 1013.8
20260508200056 62 273 0.9 7.8 0.00 0.00 0.00 61 1013.8
20260508194609 62 192 1.7 7.8 0.00 0.00 0.00 58 1013.8
20260508193105 63 244 1.7 9.6 0.00 0.00 0.00 57 1014.0
20260508191551 63 236 3.5 12.2 0.00 0.00 0.00 55 1014.0
20260508190050 64 132 3.5 12.2 0.00 0.00 0.00 54 1014.2
20260508184602 65 263 1.7 11.3 0.00 0.00 0.00 53 1014.1
20260508183053 66 188 2.6 12.2 0.00 0.00 0.00 54 1014.1
20260508181603 66 188 3.5 13.0 0.00 0.00 0.00 53 1014.2
20260508180049 66 155 2.6 12.2 0.00 0.00 0.00 53 1014.0
20260508174547 67 159 4.3 11.3 0.00 0.00 0.00 52 1014.2
20260508173053 66 241 2.6 13.0 0.00 0.00 0.00 53 1014.5
20260508171554 66 192 2.6 16.5 0.00 0.00 0.00 52 1014.9
20260508170052 64 222 4.3 12.2 0.00 0.00 0.00 54 1015.3
20260508164553 64 205 1.7 11.3 0.00 0.00 0.00 54 1015.5
20260508163054 64 159 4.3 11.3 0.00 0.00 0.00 54 1015.9
20260508161551 64 164 0.9 7.0 0.00 0.00 0.00 54 1016.1
20260508160129 64 0 1.7 8.7 0.00 0.00 0.00 56 1016.2
20260508154557 62 251 3.5 9.6 0.00 0.00 0.00 57 1016.4
20260508153051 62 209 1.7 8.7 0.00 0.00 0.00 57 1016.5
20260508151555 62 164 2.6 9.6 0.00 0.00 0.00 57 1016.5
20260508150050 60 200 1.7 9.6 0.00 0.00 0.00 60 1016.4
20260508144548 59 192 3.5 11.3 0.00 0.00 0.00 60 1016.6
20260508143059 58 183 1.7 7.8 0.00 0.00 0.00 61 1016.6
20260508141601 58 0 0.9 8.7 0.00 0.00 0.00 61 1017.0
20260508140055 57 216 1.7 8.7 0.00 0.00 0.00 62 1016.9
20260508134555 56 188 1.7 8.7 0.00 0.00 0.00 63 1017.0
20260508133058 54 301 1.7 7.8 0.00 0.00 0.00 67 1016.9
20260508131546 52 184 1.7 5.2 0.00 0.00 0.00 70 1016.9
20260508130057 51 0 1.7 5.2 0.00 0.00 0.00 71 1017.0
20260508124556 51 0 0.0 4.3 0.00 0.00 0.00 74 1017.0
20260508123054 50 196 0.9 2.6 0.00 0.00 0.00 76 1017.0
20260508121604 49 0 0.0 0.0 0.00 0.00 0.00 76 1017.1
20260508120050 49 0 0.0 0.0 0.00 0.00 0.00 76 1017.0
20260508114554 49 0 0.0 0.0 0.00 0.00 0.00 76 1016.8
20260508113049 49 174 0.0 2.6 0.00 0.00 0.00 76 1016.7
20260508111553 49 180 0.0 1.7 0.00 0.00 0.00 76 1016.6
20260508110055 49 0 0.0 0.9 0.00 0.00 0.00 76 1016.5
20260508104552 49 0 0.0 1.7 0.00 0.00 0.00 76 1016.5
20260508103055 49 0 0.0 2.6 0.00 0.00 0.00 75 1016.3
20260508101555 49 0 0.9 3.5 0.00 0.00 0.00 75 1016.3
20260508100052 50 165 0.0 3.5 0.00 0.00 0.00 74 1016.1
20260508094604 50 0 0.0 2.6 0.00 0.00 0.00 69 1016.3
20260508093053 50 197 0.0 2.6 0.00 0.00 0.00 68 1015.8
20260508091558 50 0 0.0 4.3 0.00 0.00 0.00 68 1015.8
20260508090051 51 0 0.9 6.1 0.00 0.00 0.00 67 1016.1
20260508084550 51 0 1.7 6.1 0.00 0.00 0.00 65 1016.1
20260508083127 51 0 0.0 6.1 0.00 0.00 0.00 65 1016.3
20260508081556 51 196 0.9 3.5 0.00 0.00 0.00 65 1016.5
20260508080056 51 175 0.0 4.3 0.00 0.00 0.00 65 1016.5
20260508074550 51 192 0.0 3.5 0.00 0.00 0.00 64 1016.3
20260508073055 51 182 1.7 5.2 0.00 0.00 0.00 64 1016.4
20260508071556 51 175 1.7 7.0 0.00 0.00 0.00 64 1016.2
20260508070057 50 160 1.7 7.0 0.00 0.00 0.00 64 1016.4
20260508064607 50 165 2.6 6.1 0.00 0.00 0.00 65 1016.5
20260508063055 50 209 1.7 6.1 0.00 0.00 0.00 66 1016.7
20260508061551 50 172 1.7 6.1 0.00 0.00 0.00 67 1016.4
20260508060107 50 208 0.9 5.2 0.00 0.00 0.00 67 1016.6
20260508054603 50 180 1.7 6.1 0.00 0.00 0.00 68 1016.7
20260508053048 50 170 0.9 4.3 0.00 0.00 0.00 69 1016.8
20260508051550 50 210 1.7 5.2 0.00 0.00 0.00 70 1016.6
20260508050052 50 129 2.6 5.2 0.00 0.00 0.00 71 1016.8
20260508044549 49 158 2.6 6.1 0.00 0.00 0.00 72 1016.7
20260508043051 49 164 2.6 6.1 0.00 0.00 0.00 73 1016.7
20260508041552 49 205 1.7 6.1 0.00 0.00 0.00 73 1016.8
20260508040100 49 179 1.7 5.2 0.00 0.00 0.00 73 1016.6
20260508034551 50 0 1.7 6.1 0.00 0.00 0.00 73 1016.4